Terminal Aerodrome Forecast
Issued by NWS Sioux Falls, SD

Home | Current Version | Previous Version | Graphics & Text | Print | Product List | Glossary Off
Versions: 1 2 3 4 5 6 7 8 9 10 11 12 13

000
FTUS43 KFSD 141720
TAFFSD
TAF
KFSD 141720Z 1418/1518 VRB04KT P6SM SCT070
      TEMPO 1507/1511 6SM -RA BKN040
     FM151200 36005KT P6SM SCT040=

USA.gov is the U.S. government's official web portal to all federal, state and local government web resources and services.